Theta_e
344 340 341 346 346 345 345 345 346 343 337 339 341 338 337 336 336 337 338 339 339 338 337 336 334 334 333 331 330 332 335 336 336 337 335 336 339 339 339 339 338 337 336 336 336 336 336 336 338 338 339 339 339 339 339 339 339 339 338 339 338 337 337 336 335 335 335 335 335 334 334 334 334 333 332 332 331 331 331 330 328 325 325 330 331
344 341 341 345 346 345 345 344 345 344 339 339 342 340 337 336 337 339 340 340 339 340 338 336 334 330 326 324 327 333 336 337 337 337 337 338 339 338 338 338 337 337 337 336 337 336 336 335 336 336 338 338 338 339 338 338 338 338 338 339 338 336 335 335 334 335 335 335 334 334 334 335 334 333 332 331 330 331 330 327 324 321 325 329 328
344 341 340 344 343 345 345 344 345 344 341 339 341 339 336 336 339 340 340 340 339 340 339 337 332 325 321 322 329 335 337 337 337 337 338 339 338 337 337 337 337 337 336 336 335 335 335 335 335 335 337 338 338 338 338 338 338 337 337 337 337 336 335 333 333 334 335 334 334 334 335 334 333 332 331 330 329 328 327 326 324 323 327 329 328
345 342 339 343 342 344 344 343 344 343 343 339 337 336 336 339 341 340 339 340 340 340 340 337 331 323 321 325 333 338 337 337 338 338 339 338 337 336 337 336 336 336 335 335 334 333 333 334 335 335 335 337 337 337 338 337 338 337 337 337 337 335 334 332 331 331 331 331 331 332 332 332 331 331 330 329 328 326 327 328 328 329 330 329 329
345 342 337 341 342 343 343 343 344 342 342 338 335 335 338 340 340 339 339 340 340 340 339 337 330 323 326 331 336 339 338 338 339 339 337 336 335 335 335 336 337 336 335 335 334 333 333 333 333 334 335 335 336 337 337 337 337 337 337 336 336 334 332 330 330 328 328 329 328 329 329 329 330 331 330 328 328 328 329 330 331 331 331 330 329
344 340 335 339 341 341 341 343 342 341 341 337 335 336 338 340 339 338 338 339 339 339 338 337 331 324 330 336 337 339 340 339 339 339 336 337 336 335 335 336 337 337 336 336 335 334 333 333 332 333 334 335 336 336 336 337 337 337 337 336 335 334 332 330 330 329 329 328 327 327 327 329 331 331 329 328 329 329 330 331 330 330 330 330 329
343 336 334 336 338 338 339 340 341 341 341 338 337 336 338 339 339 338 338 339 339 339 337 337 332 325 332 336 337 340 341 340 339 338 336 338 337 335 335 336 337 337 337 337 336 335 335 334 334 333 333 335 335 335 335 336 337 336 336 335 335 334 333 332 331 331 330 329 327 326 328 330 332 331 329 328 328 329 329 329 329 329 329 329 329
342 335 332 332 334 337 340 340 342 343 341 340 338 337 338 338 339 338 338 339 339 339 338 337 333 328 334 336 337 341 341 339 339 339 338 338 338 334 334 337 336 336 337 337 336 336 335 333 335 333 332 334 334 334 335 335 335 336 335 335 335 335 334 333 333 332 331 330 328 327 329 330 331 332 331 328 328 327 327 328 329 329 329 328 328
340 337 332 331 336 340 342 341 343 344 343 342 339 339 340 340 340 339 339 339 340 340 338 336 334 333 336 336 337 340 340 339 339 340 339 337 338 335 334 338 337 337 338 337 336 335 334 333 334 332 332 334 333 332 335 335 334 334 333 333 333 333 332 331 333 334 332 331 329 327 328 330 331 333 332 330 329 328 327 328 329 329 327 326 327
340 338 332 334 340 342 342 343 344 344 344 343 340 341 343 343 342 341 340 340 341 340 339 337 335 336 336 335 337 340 339 339 338 339 339 337 338 335 335 338 337 338 337 336 336 333 333 335 334 332 334 334 332 331 333 333 331 330 329 329 329 330 329 329 332 333 332 331 329 326 327 329 331 333 333 332 331 330 328 327 328 327 325 326 326
340 338 334 336 340 341 342 343 343 344 344 343 342 343 343 343 342 341 341 341 341 340 340 338 337 336 334 335 338 340 340 339 339 338 338 337 337 336 336 337 337 338 336 336 336 333 333 336 333 332 334 334 333 332 331 331 329 328 328 328 328 328 329 330 331 332 333 332 331 327 327 329 330 333 333 333 331 330 328 326 326 325 325 326 327
341 339 336 336 339 341 342 343 342 344 344 343 343 342 342 342 342 342 341 342 340 340 340 339 339 332 330 336 339 340 339 340 339 338 338 336 336 336 336 337 337 337 337 337 336 334 333 334 332 330 330 330 331 331 331 332 330 328 328 328 329 329 329 330 331 332 332 332 331 329 327 327 329 332 333 332 330 328 327 327 325 325 326 327 327
340 340 337 336 338 341 342 343 343 343 343 342 343 342 342 342 342 342 341 342 340 340 339 340 338 327 328 337 339 340 339 339 339 338 337 336 336 336 336 337 337 337 338 337 336 333 331 331 330 328 327 327 328 330 330 330 328 328 328 329 329 329 329 329 331 331 331 331 331 329 327 327 327 332 332 330 330 328 328 328 326 326 327 327 326
340 341 338 337 339 341 341 342 341 342 343 342 343 342 342 341 342 342 340 341 340 340 339 339 338 330 330 338 339 340 339 339 339 338 337 337 336 337 337 337 338 338 337 337 335 331 328 329 328 326 327 327 327 328 328 328 328 328 328 329 328 327 327 328 331 331 331 330 331 329 326 326 327 330 332 329 329 328 328 329 327 326 327 326 325
342 340 337 338 339 340 340 339 340 342 343 341 342 341 341 341 342 342 340 341 340 339 339 339 340 337 333 334 339 340 339 339 339 338 338 337 336 336 336 336 337 337 337 337 334 328 327 327 326 326 326 327 327 327 327 327 327 327 328 329 328 328 326 327 329 331 331 330 329 328 325 325 327 331 331 328 328 327 328 329 327 326 326 326 324
343 340 338 338 338 339 339 339 339 341 342 342 342 340 340 341 342 342 341 340 339 339 339 340 339 341 335 331 339 340 339 340 338 338 338 337 336 336 336 335 335 335 336 336 332 327 326 327 326 326 326 326 327 326 327 327 327 327 328 329 331 331 329 328 328 329 330 329 327 324 323 324 328 331 331 328 328 326 327 328 326 326 326 325 324
344 340 337 337 337 338 339 340 339 339 340 341 341 340 339 341 342 341 341 339 339 339 339 340 339 342 336 329 338 340 338 339 338 338 337 338 337 336 336 336 335 336 337 334 330 327 327 327 326 325 325 326 326 326 326 327 327 327 328 330 331 332 332 330 329 329 330 329 325 322 321 323 326 330 330 328 328 327 327 327 326 326 326 325 324
344 339 337 337 339 339 339 340 339 339 340 340 339 339 339 340 342 340 340 338 338 340 339 340 340 342 336 328 338 340 339 339 338 338 337 337 337 336 335 335 335 336 337 335 329 328 327 326 326 326 325 326 325 326 326 326 327 326 328 329 330 332 333 333 331 329 329 329 326 321 321 323 326 329 330 329 328 327 328 327 326 326 325 325 323
344 340 340 342 342 340 340 340 339 339 339 339 339 338 339 339 340 338 338 338 338 340 339 341 340 342 338 330 337 340 340 340 338 338 338 337 336 336 335 335 334 334 336 335 331 329 327 327 326 326 326 325 325 325 326 326 326 326 327 328 330 333 333 333 332 331 329 329 326 322 322 323 327 330 330 329 328 327 328 326 326 326 325 325 324
344 343 343 343 343 341 340 341 340 340 339 339 337 337 337 337 338 338 338 338 338 339 340 341 341 342 339 333 337 341 341 340 339 339 337 337 336 335 335 335 333 334 335 333 331 330 328 328 326 326 326 325 325 325 325 325 325 326 326 328 331 333 333 331 332 332 329 328 326 323 322 323 327 330 330 329 328 327 327 326 326 326 326 325 323
344 344 344 344 343 342 341 340 340 340 339 338 339 338 337 338 339 338 338 338 338 339 340 341 341 342 340 334 338 341 340 339 339 339 337 336 336 336 336 335 333 333 334 332 331 332 329 328 327 326 326 325 325 324 325 325 325 326 326 328 331 333 333 331 331 330 329 327 325 323 322 323 327 331 330 329 328 328 327 326 326 325 326 325 323
343 344 344 344 344 342 341 340 340 340 339 339 340 339 339 340 339 338 339 339 338 339 340 342 341 341 339 335 339 341 339 339 339 338 337 336 336 337 335 335 333 330 332 334 333 332 330 328 327 326 325 325 324 324 325 325 325 326 327 329 331 332 333 332 331 330 329 327 325 324 322 323 327 331 331 329 329 328 327 327 326 326 326 325 324
343 343 343 342 343 342 340 340 340 340 339 339 340 339 339 341 339 338 339 338 339 340 340 341 341 341 339 336 339 340 339 339 340 338 338 337 337 337 337 335 331 326 328 333 334 330 327 327 327 326 326 324 324 324 325 325 325 327 329 331 331 332 332 333 333 331 328 327 326 324 323 323 325 327 331 330 329 328 328 327 326 326 327 325 324
342 342 343 342 342 342 341 341 340 340 340 340 340 338 339 340 339 338 338 339 339 341 341 340 340 341 340 337 337 339 339 340 340 340 339 339 338 337 338 336 330 324 322 329 333 329 324 326 326 326 326 324 325 325 325 325 327 329 331 331 332 332 332 332 333 333 329 327 326 325 323 324 324 324 329 331 329 329 328 328 326 325 327 326 325
341 340 342 341 341 341 340 341 340 340 340 340 339 339 339 340 339 338 339 339 339 341 340 340 341 340 339 337 336 338 339 340 340 340 338 338 338 337 337 336 331 325 322 325 327 325 322 325 326 326 325 325 325 324 325 327 329 330 330 331 332 332 332 332 333 333 332 329 327 326 324 325 325 323 326 330 330 329 329 328 326 326 327 326 325
340 339 340 341 341 341 340 341 341 341 340 340 340 339 339 338 339 339 338 338 338 340 340 340 340 339 339 337 335 338 340 340 339 339 338 337 338 338 337 336 333 326 323 324 324 320 321 324 325 326 325 325 325 324 325 327 329 330 330 330 331 331 331 330 331 332 333 331 329 327 325 326 326 323 325 329 330 330 329 328 327 327 327 326 326
339 339 338 340 340 339 339 341 340 340 340 340 340 340 339 337 338 338 338 338 338 339 340 340 340 340 339 337 335 337 340 339 338 338 338 338 338 338 337 336 334 329 324 323 324 319 320 324 325 325 325 324 324 323 324 327 327 328 330 330 331 330 330 330 330 331 332 333 331 328 328 326 325 323 323 327 331 330 329 328 327 327 327 327 327
339 338 337 339 340 340 339 340 340 341 340 340 340 340 339 337 338 339 338 337 337 339 340 340 340 340 339 337 334 337 339 339 338 338 338 339 338 338 337 336 335 332 325 323 323 320 320 324 325 324 324 324 323 322 323 323 323 323 327 329 329 329 329 330 331 331 333 333 333 330 328 327 324 322 321 324 329 330 330 328 328 328 327 327 327
338 337 337 338 340 340 339 339 340 340 340 340 339 340 339 338 338 338 338 338 338 338 339 340 340 339 338 336 334 336 338 338 338 338 338 338 339 338 337 336 336 334 326 322 323 322 321 324 325 325 324 323 322 321 320 319 320 321 325 328 329 330 330 330 331 331 333 333 333 330 330 328 324 321 320 321 325 328 329 328 328 328 328 328 327
338 337 336 337 340 340 339 339 340 340 340 339 339 339 340 338 338 338 338 338 337 338 339 340 339 339 337 335 334 335 336 336 337 337 337 338 338 338 337 336 336 335 328 322 322 322 322 323 324 324 323 322 321 322 323 325 327 329 330 331 330 330 330 331 331 332 332 332 332 331 330 329 325 321 320 320 321 324 328 328 329 329 328 328 327
338 337 337 337 339 340 340 340 340 340 339 338 338 339 340 339 338 338 338 338 337 337 338 339 339 338 337 335 333 333 333 334 336 337 337 337 337 338 337 336 337 335 329 322 322 322 322 323 324 326 327 328 328 329 331 332 333 333 332 332 330 330 330 331 331 331 332 332 332 331 331 330 327 324 321 319 319 320 323 327 329 329 328 327 327
338 338 338 338 338 339 340 340 340 340 339 337 337 338 339 338 338 338 337 337 337 336 337 339 339 338 337 335 334 332 331 332 335 337 337 336 336 337 337 337 337 335 329 324 322 323 323 325 327 329 331 332 332 332 333 333 332 331 331 330 330 330 331 331 332 331 332 331 332 331 330 330 330 327 325 322 319 318 319 323 327 328 329 328 328
338 339 339 338 339 339 339 340 340 340 339 337 338 338 339 339 338 338 337 337 337 337 337 337 338 338 337 336 335 333 332 334 336 336 336 337 336 336 337 337 337 335 331 328 326 326 326 328 329 331 332 333 333 333 334 333 331 330 330 330 330 331 332 332 331 331 331 332 332 331 331 331 331 329 328 326 323 320 319 320 324 327 329 329 329
339 339 339 338 338 339 339 339 339 340 339 338 339 339 339 339 339 338 338 338 338 337 336 337 338 338 338 336 335 334 335 337 337 337 336 337 337 336 336 336 336 336 334 333 331 331 331 332 332 332 333 333 334 333 334 334 332 331 331 331 331 332 332 332 331 331 332 332 332 332 331 331 331 331 329 328 326 323 322 320 321 323 325 327 328
339 339 339 339 339 339 339 339 339 340 340 340 340 339 339 339 339 339 339 339 338 337 337 337 338 338 338 336 335 336 337 338 337 337 336 336 336 336 336 336 336 336 336 334 334 334 333 333 333 333 333 333 333 334 334 334 333 333 332 332 332 332 332 332 331 331 331 332 332 332 332 332 332 332 330 330 329 327 326 324 322 321 321 323 326
339 339 339 338 338 338 339 339 339 340 340 340 340 339 339 339 339 339 338 339 338 337 337 337 337 338 338 336 336 338 338 338 338 337 336 335 335 336 336 336 336 336 335 335 334 334 333 333 332 333 333 333 333 334 334 334 334 333 333 333 332 333 332 331 331 331 331 331 332 332 332 332 332 332 331 331 331 330 329 328 327 324 323 322 322
339 339 339 338 338 338 338 338 339 339 339 339 340 339 340 339 339 339 338 338 338 338 338 337 338 337 336 335 336 337 338 338 338 337 336 335 335 335 336 335 336 336 335 334 334 333 333 333 332 332 332 333 334 334 334 334 334 334 334 333 332 331 331 330 330 330 331 331 332 332 333 333 333 333 332 332 333 332 331 330 329 328 327 325 324
339 339 339 339 339 337 337 338 338 338 338 339 339 340 340 339 339 339 339 338 338 338 338 338 338 337 336 335 336 337 338 338 338 338 337 335 334 334 334 335 336 337 335 334 334 334 333 333 332 332 333 334 334 334 334 334 335 335 334 333 333 333 332 331 329 329 330 331 332 332 333 333 333 334 333 333 334 333 333 332 332 330 329 329 328
339 339 339 339 339 338 337 337 337 337 337 338 339 339 339 339 338 338 338 338 338 338 339 338 338 338 338 337 338 337 338 338 338 338 337 336 335 334 333 334 335 336 335 335 334 334 334 332 332 332 333 334 334 334 334 335 335 335 334 334 335 335 335 334 333 331 331 331 332 332 332 333 333 334 334 334 334 334 334 333 332 332 332 332 333
339 338 338 338 337 337 336 336 337 337 336 337 337 337 338 338 338 337 337 338 338 338 338 338 338 338 338 338 338 337 338 338 337 337 337 336 335 334 334 334 334 335 336 335 335 334 333 332 332 332 333 334 334 334 334 334 335 335 335 336 336 336 335 336 336 335 333 331 331 332 332 333 334 334 334 334 334 334 334 333 332 333 333 335 335
338 338 337 337 337 336 336 336 337 336 336 337 337 337 337 336 337 336 337 337 337 338 338 338 338 338 338 338 338 338 338 337 337 337 336 336 335 335 334 334 334 334 335 336 336 335 333 332 332 332 333 333 334 333 333 334 335 335 336 336 335 334 335 336 336 337 335 333 331 333 333 334 334 334 334 334 333 334 334 334 334 334 335 335 334
337 338 337 337 337 336 336 336 336 336 337 337 337 337 336 336 336 336 336 336 337 338 338 337 337 337 338 338 338 338 337 336 336 336 335 335 335 335 334 335 335 335 335 336 336 335 334 333 332 332 332 332 333 333 333 334 335 335 335 337 336 335 334 333 335 335 335 335 335 335 335 335 335 334 333 333 333 334 334 334 334 333 334 333 333
337 337 337 337 337 336 335 336 336 337 337 337 337 337 336 336 336 336 336 336 337 337 337 336 336 336 336 337 337 338 337 335 335 335 336 335 336 335 334 334 336 336 336 336 337 336 334 333 332 332 332 332 332 332 333 333 335 335 334 336 335 336 338 334 333 333 333 334 334 334 335 335 336 335 334 333 332 333 334 333 333 333 333 333 333
337 336 336 336 336 336 336 335 336 336 337 337 337 337 337 337 336 337 336 336 337 337 336 336 336 335 335 336 336 336 336 335 335 335 336 335 335 335 333 333 335 337 337 335 336 337 335 334 333 333 332 332 332 333 333 333 334 334 334 335 332 333 341 336 331 333 332 333 334 334 336 336 335 335 333 333 332 332 333 333 333 334 333 333 333
337 336 336 336 336 336 336 335 335 335 337 337 337 337 337 337 337 337 337 336 336 337 336 336 336 335 335 336 335 335 336 336 335 335 335 335 335 335 333 333 335 337 337 335 335 336 336 335 334 333 332 332 332 332 333 333 334 334 333 335 334 334 340 334 330 333 331 332 334 334 335 335 334 333 333 333 332 332 333 334 334 333 333 333 334
337 336 336 337 336 336 336 336 336 335 336 336 337 338 337 337 337 336 336 336 336 336 336 336 336 335 336 336 335 335 336 336 336 336 336 336 335 334 333 334 335 336 336 336 335 335 335 336 335 335 334 334 334 333 333 333 334 335 334 335 335 335 336 333 332 336 333 332 334 334 334 333 333 334 334 334 334 334 334 334 334 334 333 333 333
337 337 337 337 337 336 336 336 336 336 336 336 336 337 337 337 336 336 335 335 336 336 335 335 335 336 336 335 335 335 336 336 337 337 337 335 335 335 335 335 336 335 335 336 335 334 334 335 336 336 335 335 335 334 334 333 334 335 335 335 334 334 335 333 334 336 336 336 334 332 333 334 334 335 335 335 335 335 334 334 335 335 334 334 334
338 338 337 337 337 337 337 336 336 336 336 336 336 336 337 336 336 336 335 335 335 335 335 334 335 335 335 335 336 336 335 335 336 337 337 336 335 335 335 336 335 334 334 335 336 335 334 335 337 337 337 336 336 336 335 334 334 334 334 335 334 334 335 334 333 333 335 338 336 333 333 333 334 335 336 336 335 335 334 333 336 336 335 335 335
338 338 337 337 337 337 337 336 336 336 336 337 336 336 335 335 336 335 335 335 335 335 334 334 334 334 335 335 336 336 335 334 334 336 338 337 336 335 335 335 335 334 334 335 336 336 336 336 337 337 338 338 338 337 337 336 335 334 333 333 333 333 333 333 333 333 335 337 339 338 333 332 334 334 334 336 335 335 334 335 337 337 336 336 335
338 338 337 337 337 337 336 336 337 336 336 336 336 336 335 335 335 335 335 335 335 335 335 335 334 334 335 335 335 335 334 334 334 335 337 337 336 335 335 335 335 334 334 335 336 336 336 337 337 337 337 338 338 338 338 337 337 335 334 332 332 331 332 333 334 334 334 333 335 336 331 330 335 334 332 334 335 335 334 336 337 336 336 336 336
337 338 338 337 337 337 336 336 337 335 335 336 335 336 335 334 335 335 335 335 335 335 335 335 335 335 335 335 335 335 334 335 334 334 335 336 335 335 335 335 335 335 335 335 336 337 337 337 337 337 338 339 339 338 338 338 338 336 336 334 333 333 333 334 334 333 333 332 332 334 331 330 333 333 333 335 335 335 334 335 335 335 336 335 334
Wind_Speed
18 17 19 18 15 15 15 15 16 15 17 18 17 18 19 19 20 19 18 18 18 18 18 18 17 17 17 17 17 17 17 18 18 17 17 16 16 15 15 14 14 13 13 12 11 11 10 10 10 9 10 10 10 10 11 12 14 15 15 16 16 16 16 15 14 13 12 11 10 9 9 11 12 11 11 11 10 9 9 9 9 9 9 8 9
20 18 18 17 15 14 14 15 16 15 16 18 17 17 18 18 19 18 16 16 16 16 16 16 16 16 16 17 17 17 17 17 17 17 16 16 15 14 15 15 15 14 14 13 12 12 11 11 10 9 10 10 10 11 11 13 14 15 15 15 15 16 15 14 14 12 11 10 9 9 9 10 11 11 10 10 9 9 9 7 7 9 10 9 8
20 19 18 17 15 14 14 14 15 15 15 17 17 17 18 18 18 17 16 16 15 15 15 14 15 15 16 17 17 17 17 17 17 17 16 15 14 14 14 14 15 15 14 13 12 12 11 11 11 10 9 10 11 11 12 12 13 14 15 15 15 15 14 14 13 12 11 10 9 9 9 10 10 10 9 9 8 8 7 7 9 11 11 10 9
18 20 18 16 15 14 13 14 14 15 15 16 18 18 18 18 17 17 16 16 15 15 14 14 14 16 16 17 17 17 17 17 17 16 15 15 15 14 14 14 14 14 13 13 12 12 12 11 12 12 9 9 11 11 12 12 12 14 14 15 15 14 13 13 12 11 10 9 8 7 8 8 8 9 9 8 8 8 8 9 10 11 11 10 10
19 21 19 18 16 15 14 14 14 15 16 17 18 18 18 18 17 17 16 16 16 15 14 14 14 16 15 16 16 17 17 17 17 15 15 14 14 14 14 15 15 14 13 13 12 12 12 12 12 12 10 9 11 12 12 11 12 12 13 14 14 13 12 11 10 9 9 8 5 5 6 7 9 10 9 8 9 9 9 9 10 10 10 10 10
20 22 21 20 18 17 16 17 16 16 18 19 20 19 19 18 18 17 17 17 16 15 14 14 14 15 15 15 16 17 17 18 17 16 15 15 14 15 15 15 14 14 13 13 12 11 11 11 11 11 11 10 11 11 11 11 11 11 12 13 13 12 11 10 9 8 7 6 4 4 6 8 10 10 9 9 9 8 8 9 10 10 9 9 8
21 23 22 21 20 20 20 21 20 19 20 21 22 21 20 19 19 18 17 17 16 16 14 14 14 15 14 15 16 16 17 17 17 16 16 15 14 15 16 15 14 14 13 13 12 11 10 10 11 11 11 11 11 10 10 10 11 10 11 12 12 11 9 8 7 7 6 5 3 4 7 9 10 10 10 10 10 8 8 9 9 9 8 8 9
21 24 24 23 23 23 23 23 22 21 19 20 22 21 20 20 19 18 18 17 16 15 14 14 14 14 13 14 16 16 16 17 17 16 16 15 15 14 15 15 14 13 13 12 11 11 10 10 10 10 11 11 10 10 10 10 10 9 10 11 10 9 7 6 5 4 4 4 3 4 7 8 9 10 10 11 10 9 8 8 8 8 8 8 8
22 24 25 24 23 23 21 22 21 20 19 20 22 21 20 20 19 18 17 16 15 15 14 14 14 14 13 13 15 15 16 17 17 17 16 16 16 15 15 15 13 13 12 12 11 10 10 10 10 11 11 11 10 9 11 10 10 9 9 9 7 6 4 3 3 2 2 2 2 3 6 7 8 10 10 11 10 10 8 8 8 8 7 7 7
24 24 23 23 22 20 20 21 21 20 19 20 22 20 19 19 18 17 16 16 15 14 14 13 14 14 12 13 15 15 16 16 16 16 15 15 15 14 15 15 13 13 12 11 11 10 10 10 10 11 11 11 10 9 9 9 8 8 7 6 4 3 2 2 2 1 1 1 1 3 5 7 8 9 10 10 9 9 8 6 6 7 7 6 7
24 24 23 23 22 21 21 22 21 20 19 19 19 18 17 17 16 15 15 15 14 14 13 13 13 13 13 14 15 15 16 16 16 15 15 15 14 14 15 14 13 13 11 11 10 10 10 11 11 12 11 12 12 10 9 8 7 6 5 3 1 0 1 1 3 4 4 3 1 3 6 6 7 8 9 9 8 7 6 6 5 6 7 7 8
25 24 23 24 23 21 21 21 20 19 18 17 16 16 16 15 15 15 15 14 13 13 12 12 12 11 13 15 14 15 16 16 16 15 14 14 13 13 13 13 13 12 11 10 10 9 10 11 11 11 11 11 11 9 8 8 6 5 3 1 1 2 2 2 4 5 6 5 3 3 5 5 6 7 7 7 6 5 5 6 6 7 8 8 8
25 25 24 24 22 20 21 20 18 17 16 16 15 15 15 14 14 14 14 13 13 12 12 12 11 11 13 14 13 14 16 16 15 15 14 13 13 12 12 12 11 11 11 10 9 9 10 11 11 11 11 11 10 9 7 7 6 5 2 1 2 2 3 3 4 5 5 5 5 4 4 5 5 6 7 6 5 5 5 7 7 7 8 7 6
25 24 23 23 21 18 19 20 18 17 15 15 14 15 15 14 14 13 13 13 12 12 11 11 11 11 13 13 13 14 16 16 15 14 14 13 13 12 12 11 11 10 10 10 9 9 10 11 11 12 11 11 10 8 7 6 6 4 2 2 3 2 1 2 3 4 4 5 5 5 5 5 7 7 7 6 5 5 6 6 7 7 6 6 5
24 23 22 22 21 18 18 19 18 17 16 15 14 14 14 14 14 14 13 13 12 12 11 11 12 12 11 12 12 14 16 15 14 15 14 14 13 13 12 11 11 10 10 9 8 8 9 10 10 11 11 10 9 7 6 6 5 3 3 4 6 6 4 0 2 3 4 4 4 5 6 6 8 9 7 6 5 5 6 6 6 6 6 5 5
22 21 21 21 20 18 18 17 16 16 16 16 15 14 14 14 14 13 13 13 12 11 11 11 12 12 11 12 12 14 16 15 14 15 14 14 13 12 12 11 10 9 9 8 7 7 8 9 9 10 10 9 8 7 6 6 4 3 3 5 6 7 6 3 1 3 4 4 4 5 6 6 8 9 7 6 5 5 6 5 5 6 5 5 4
19 19 20 20 19 18 17 16 16 15 15 15 14 13 13 14 13 13 13 12 11 11 11 11 12 12 11 12 13 14 16 15 14 14 13 13 12 11 11 10 9 9 7 6 6 7 7 8 8 9 9 8 7 6 5 5 4 3 3 4 5 5 5 3 2 3 4 4 3 4 5 6 8 8 8 7 6 5 6 5 5 5 5 4 4
17 18 19 18 18 17 16 16 16 15 15 14 14 13 13 14 13 13 13 12 12 11 11 11 12 13 11 12 13 14 15 15 14 13 13 12 12 11 10 9 8 9 7 6 6 6 6 7 7 8 9 8 7 5 5 5 3 3 3 3 3 4 5 5 3 4 5 5 4 4 4 6 8 8 8 7 7 6 6 5 4 4 5 4 5
18 18 18 17 17 17 17 17 16 16 16 16 15 14 13 14 14 13 13 12 12 11 11 12 13 13 12 12 13 14 14 14 13 12 12 12 11 10 9 8 8 8 8 7 7 6 6 6 7 8 8 8 6 5 5 5 4 3 2 2 3 3 6 5 3 4 6 6 5 5 3 5 7 8 8 7 8 8 6 5 5 5 5 4 5
19 19 19 17 17 17 17 17 17 16 17 17 16 16 14 14 14 13 13 13 13 12 12 13 13 13 12 12 13 13 13 13 12 11 12 11 11 10 9 8 7 8 8 8 8 8 7 6 7 7 7 7 6 5 5 5 4 3 2 1 2 4 7 6 3 2 4 6 6 5 4 5 6 8 8 7 8 9 7 7 6 5 5 5 4
20 20 20 19 18 18 18 18 17 17 17 17 17 16 15 14 15 14 14 13 13 12 12 13 13 13 12 12 13 13 14 13 12 11 11 11 10 10 9 7 7 8 8 7 8 9 9 8 7 7 7 7 6 6 5 5 4 3 1 1 1 3 6 6 4 1 2 5 6 6 4 4 6 9 8 7 8 8 8 8 7 6 5 4 4
20 20 20 20 19 19 20 19 18 17 17 18 18 17 16 16 16 15 15 14 14 13 13 13 13 13 12 12 12 13 14 14 13 13 12 11 11 10 9 7 6 7 8 7 8 9 10 10 8 7 7 7 6 6 5 5 4 3 1 1 2 3 4 5 4 2 1 3 5 5 5 4 6 9 9 8 8 8 9 8 7 6 6 5 3
21 22 22 21 20 20 21 21 20 19 19 19 19 18 18 17 16 16 15 15 14 14 13 13 14 13 12 12 13 14 15 14 14 14 12 11 9 9 8 6 5 6 8 8 8 10 12 11 9 8 7 7 6 6 5 5 4 3 1 1 2 2 4 4 3 2 2 3 4 5 5 5 5 8 9 9 8 8 8 8 7 6 6 5 4
23 24 23 23 22 21 22 22 21 21 21 20 20 18 18 17 17 16 15 15 15 14 14 14 14 14 13 14 15 14 15 14 13 12 10 9 8 7 7 6 5 6 7 9 10 11 13 13 10 9 8 7 6 6 5 5 4 3 1 1 2 3 5 6 5 3 3 4 4 5 6 5 5 6 9 9 9 9 8 8 8 7 7 5 4
22 22 22 23 24 24 23 23 22 23 22 22 21 20 19 18 17 17 16 16 16 15 14 14 15 16 15 15 16 15 15 14 12 10 8 7 7 7 6 6 5 5 7 9 11 13 13 13 12 10 8 8 7 6 5 5 4 3 2 2 3 4 6 7 7 5 3 4 5 6 6 6 5 5 8 10 10 9 9 9 8 8 7 6 5
19 22 24 24 25 25 24 24 24 23 23 23 22 21 20 19 18 17 17 16 16 15 14 15 16 17 16 16 17 16 15 13 11 11 9 7 7 7 8 8 6 5 6 8 10 12 14 14 12 10 9 8 7 6 5 5 4 3 4 4 5 6 7 9 9 8 6 5 5 6 6 6 6 5 7 10 11 10 9 9 8 8 8 6 5
19 22 25 25 26 26 25 25 25 24 23 23 22 21 21 20 19 18 18 17 16 15 15 16 17 17 17 17 17 16 14 12 12 11 10 9 9 9 9 9 7 5 6 6 7 11 13 14 12 11 9 8 7 6 6 5 5 5 5 6 7 8 9 10 11 10 9 7 6 6 7 6 6 5 6 9 11 10 10 9 8 8 8 6 5
20 21 24 26 27 27 26 25 25 24 23 23 23 22 22 20 19 18 18 18 17 16 16 17 18 18 18 17 17 16 14 12 12 11 10 10 11 11 9 9 8 6 6 5 6 10 13 13 12 11 9 8 8 7 7 7 7 7 7 7 8 9 9 10 11 10 10 8 6 6 7 6 5 5 5 7 10 10 10 8 8 7 6 6 5
20 21 23 26 28 28 27 26 25 25 24 24 23 23 23 21 20 20 19 18 17 17 17 18 18 18 18 17 17 16 14 12 12 12 11 12 12 11 10 10 10 7 6 6 6 9 11 12 12 10 9 9 9 8 8 8 8 8 9 10 10 10 10 11 11 10 9 9 6 6 6 6 4 4 4 6 8 9 10 9 8 7 6 6 6
23 22 23 26 28 28 27 27 26 25 25 24 24 24 23 22 21 20 19 18 18 18 17 18 18 19 18 17 16 15 14 12 12 13 13 13 13 12 12 11 11 9 7 6 6 8 9 10 10 9 9 9 8 8 7 8 8 9 10 11 11 10 10 10 11 10 9 8 6 6 6 6 4 3 3 4 6 8 9 10 9 8 7 7 6
23 23 24 26 27 28 29 28 27 25 25 25 25 24 24 23 22 21 20 19 19 18 17 18 18 18 18 16 16 15 13 12 12 13 13 13 13 13 13 12 12 10 7 7 7 8 9 9 9 8 7 7 6 6 6 8 9 10 11 12 11 9 9 9 10 10 10 8 7 6 7 6 4 3 2 3 4 6 8 9 10 9 7 7 6
24 25 26 26 26 28 29 29 28 25 24 26 25 25 25 23 22 22 20 20 19 18 17 18 19 19 18 16 15 14 13 13 13 13 13 13 13 13 13 12 11 9 8 8 8 8 9 9 8 7 6 6 6 5 6 8 7 6 7 8 8 7 7 7 8 8 9 8 7 6 7 6 4 2 2 2 3 4 6 8 9 8 7 8 7
25 26 25 25 26 27 29 30 29 27 26 26 25 26 26 24 23 22 21 20 19 18 18 19 19 19 18 16 15 14 14 13 13 13 12 12 12 12 13 11 10 9 8 8 8 8 8 9 8 8 7 6 5 4 5 5 3 2 1 2 3 4 5 6 6 6 6 8 8 7 7 7 5 3 2 1 2 3 4 6 7 7 8 8 8
25 24 24 25 25 26 28 29 29 29 28 27 26 26 26 25 23 22 21 20 20 19 18 19 20 20 19 17 16 15 14 12 12 13 12 12 11 12 12 11 10 9 8 9 8 8 9 9 8 8 7 6 5 3 3 3 2 2 1 0 2 3 5 6 6 5 5 7 7 8 8 8 6 4 4 3 3 3 4 5 6 6 7 8 8
24 23 24 24 24 26 28 29 30 30 29 28 28 27 27 26 24 22 21 20 20 20 19 19 20 20 20 19 17 16 14 13 12 12 12 12 11 12 12 11 9 9 9 10 10 10 10 10 9 9 7 5 4 3 3 2 2 1 1 2 3 4 6 6 5 5 5 6 7 8 9 9 8 6 6 5 4 3 3 4 4 5 6 6 7
25 24 24 23 24 25 27 29 30 31 31 30 29 28 27 26 24 23 21 21 20 21 21 20 20 20 21 20 18 16 15 14 13 12 12 12 11 12 12 10 8 9 9 10 10 10 9 9 9 9 8 6 4 4 5 4 4 4 4 3 3 4 5 5 5 5 6 7 7 8 9 10 9 8 7 6 6 5 4 5 4 5 5 5 5
26 25 24 23 24 25 25 27 29 31 31 31 30 28 27 26 25 23 22 22 21 21 21 20 20 21 21 21 20 17 16 15 14 13 12 11 11 11 11 9 8 8 7 8 9 9 8 8 8 9 8 6 5 6 7 7 7 6 5 3 3 3 4 5 5 6 7 7 7 8 9 10 9 9 9 8 7 6 6 6 6 5 6 6 6
25 26 25 25 25 25 25 25 27 29 30 31 30 29 27 25 25 24 23 22 21 22 21 20 20 20 21 22 21 19 17 17 16 15 13 11 10 10 10 10 10 8 7 7 8 8 8 9 9 9 8 7 8 8 8 8 8 6 4 2 2 3 4 5 6 6 7 7 7 8 9 9 9 9 9 8 8 7 6 7 8 8 8 7 6
24 25 25 25 24 25 25 24 24 26 27 28 28 28 26 25 24 23 23 22 22 22 21 21 20 20 20 21 21 19 18 18 18 17 15 12 11 11 12 12 12 10 8 7 8 9 10 11 10 10 9 8 7 6 6 7 6 5 4 2 3 4 5 6 6 6 7 7 8 8 8 8 8 8 8 8 8 8 7 7 8 9 9 8 7
23 24 24 24 24 24 23 23 24 25 25 25 25 25 25 24 23 22 22 21 21 22 22 21 21 21 20 19 19 17 17 18 19 19 17 15 14 13 13 14 14 13 11 10 9 11 12 12 12 11 11 10 7 5 5 5 5 5 4 4 5 6 6 7 8 7 7 7 8 8 8 8 8 8 8 7 8 8 8 7 7 8 8 8 8
22 24 24 24 25 24 23 23 24 24 25 25 25 25 25 24 23 22 22 21 20 20 20 20 21 21 20 19 18 16 16 17 19 20 20 18 17 15 14 15 15 16 14 12 11 11 11 12 12 12 13 12 8 7 6 5 5 4 4 6 7 8 8 9 9 9 8 8 8 8 8 8 8 8 8 8 8 8 9 9 8 8 8 8 7
24 25 25 24 25 24 22 23 24 24 25 25 26 26 26 25 23 23 23 21 19 18 18 20 20 20 19 18 17 15 15 16 19 21 21 20 18 16 15 14 15 16 16 14 12 11 10 10 11 13 13 11 8 7 7 6 4 3 2 4 6 7 7 8 9 9 9 9 8 8 8 8 7 7 7 8 8 8 9 10 10 9 8 7 6
25 25 25 25 24 23 21 22 23 24 25 25 25 25 25 25 23 22 22 21 19 19 19 18 18 18 18 18 17 16 15 16 18 21 22 21 20 18 17 15 15 16 16 15 14 11 10 9 11 12 11 9 8 8 7 7 5 2 0 1 3 3 4 4 6 7 8 8 9 8 8 7 7 7 6 6 6 7 8 9 10 9 7 6 5
23 25 25 25 25 22 20 21 22 23 24 24 24 23 22 22 21 20 20 19 17 18 18 18 17 17 17 18 18 17 16 17 19 21 22 21 21 20 18 17 16 16 15 14 13 12 11 11 11 11 11 9 9 8 8 9 8 5 1 1 1 1 2 3 5 6 5 5 7 7 6 6 6 6 5 5 5 6 7 8 8 7 5 3 3
23 24 25 25 25 22 21 21 21 21 22 23 22 21 20 19 18 16 15 16 16 16 18 18 17 17 17 17 18 17 17 17 19 21 21 21 20 20 19 18 17 16 15 14 13 13 12 12 11 12 12 11 10 9 9 10 10 9 5 2 1 1 1 1 4 4 4 4 5 4 4 4 4 4 4 4 4 5 5 6 5 5 3 2 2
20 22 23 24 24 23 21 20 20 19 20 21 21 20 19 18 17 16 14 15 16 16 18 18 18 19 18 18 18 18 17 18 20 21 21 20 19 19 19 18 17 17 16 14 14 14 13 13 14 13 12 11 10 10 10 11 11 12 10 7 5 3 2 0 1 2 4 5 3 4 4 3 3 3 2 2 2 2 3 3 3 3 1 1 3
15 19 21 22 22 22 20 20 19 19 19 20 21 20 19 18 18 17 16 15 15 15 17 17 18 18 17 17 17 17 18 19 20 21 20 19 18 18 18 18 17 16 16 15 14 14 14 14 14 14 13 12 11 11 11 11 11 11 11 11 8 5 3 1 1 2 3 3 3 5 4 3 3 2 2 2 1 1 2 2 3 4 4 4 5
16 18 20 21 21 21 20 21 20 20 19 19 20 21 20 19 18 17 16 15 14 14 15 16 15 15 15 16 16 17 18 19 20 20 20 19 19 18 18 17 17 17 16 16 15 15 14 14 14 15 15 13 13 12 11 11 11 10 10 10 10 9 6 4 4 4 1 1 4 4 3 3 2 2 3 2 3 3 2 2 3 4 5 6 6
18 19 20 20 21 22 22 21 21 19 18 18 19 20 19 18 18 17 16 16 15 13 13 14 14 14 15 15 16 17 18 18 18 19 19 20 20 19 18 17 17 17 17 16 15 15 15 14 15 16 16 15 13 12 12 12 12 11 10 10 11 10 7 5 6 6 2 1 2 2 2 4 3 4 4 2 3 4 3 4 4 4 6 7 7
19 19 20 20 21 22 22 21 21 19 18 17 17 18 19 18 18 18 17 16 14 13 13 14 14 15 15 15 16 17 18 19 18 18 19 20 20 19 18 18 18 17 18 17 16 16 15 15 15 16 16 15 13 13 12 11 11 12 12 13 13 9 5 5 7 7 4 3 3 3 3 3 2 2 4 3 4 5 5 5 5 6 7 7 6
20 21 21 21 21 21 20 20 20 20 19 18 18 18 19 19 19 19 18 16 14 14 14 15 15 16 17 17 17 18 19 18 18 17 18 18 19 19 18 18 18 18 18 18 17 16 16 15 15 16 15 14 13 13 12 10 10 12 13 15 15 12 9 8 8 9 7 5 3 3 4 3 3 2 3 4 6 7 6 6 7 6 7 8 8
Wind_Direction
179 170 167 162 167 166 163 162 158 157 149 144 140 139 138 137 134 131 131 130 130 131 132 132 133 133 135 137 138 137 136 135 134 134 133 130 126 126 124 121 121 121 122 123 122 118 117 115 110 107 106 105 102 100 101 107 111 112 111 109 110 110 108 105 103 102 104 108 110 111 110 110 109 107 106 105 104 109 111 108 109 104 101 104 103
177 172 166 160 163 163 163 161 157 155 150 146 141 140 138 134 131 129 130 130 131 131 132 133 134 135 138 140 140 138 136 134 135 135 133 130 130 133 130 125 125 123 124 124 121 119 119 116 113 105 104 106 103 104 104 104 108 111 111 108 107 107 105 102 99 102 106 105 103 104 106 109 110 107 107 105 107 109 108 107 107 115 115 110 112
171 168 165 159 162 163 163 161 158 154 152 149 144 142 137 133 132 132 134 134 136 135 135 135 136 138 139 141 141 139 138 137 138 137 134 133 134 135 134 131 129 127 124 124 121 121 121 120 118 113 111 111 108 108 107 107 108 111 113 111 109 106 104 103 103 108 111 112 113 115 115 113 111 109 111 108 109 108 110 118 117 124 127 129 129
173 168 163 161 164 163 163 162 160 156 155 153 148 144 140 139 138 139 139 140 141 141 140 140 141 142 143 143 142 141 140 141 141 139 137 138 137 136 137 134 131 128 124 123 120 119 119 121 122 121 123 116 113 112 110 110 109 111 112 112 111 108 108 107 106 111 112 115 124 131 128 119 116 115 113 110 114 116 119 125 125 127 126 125 118
173 170 165 165 163 162 164 165 163 162 159 156 153 149 148 146 144 145 145 146 147 146 144 145 147 147 146 145 145 144 144 144 144 142 139 139 137 136 137 133 130 126 122 121 116 115 114 117 122 125 128 118 113 113 112 112 113 115 116 115 112 110 110 108 107 108 104 102 115 131 125 116 121 120 114 112 117 122 128 131 130 123 113 110 107
168 168 169 167 163 164 169 170 171 172 167 160 159 157 155 152 150 150 150 151 152 152 149 150 152 151 149 148 149 148 148 148 147 144 141 139 137 136 135 132 131 128 124 122 117 115 111 112 119 125 130 126 116 114 114 111 113 118 121 119 114 114 113 111 107 101 94 86 104 127 122 123 129 125 115 115 115 116 121 120 116 112 109 108 107
168 168 170 170 169 171 176 177 177 180 173 164 163 162 160 157 155 154 154 154 155 156 154 155 156 155 153 153 153 152 151 151 149 146 143 141 139 137 134 134 133 130 126 123 118 116 113 111 116 120 128 131 126 120 116 110 111 115 123 125 118 117 113 110 108 98 87 78 100 125 127 134 137 132 123 121 118 115 114 116 116 117 117 110 103
173 174 174 176 177 177 179 180 178 180 176 167 166 165 163 161 158 157 156 155 157 158 157 157 158 158 157 157 156 155 155 153 152 147 146 144 143 141 138 139 134 129 128 123 117 116 115 112 116 121 125 131 134 127 122 118 115 110 118 127 124 121 110 98 105 102 86 76 93 128 133 140 142 141 137 132 128 124 124 128 128 124 118 111 106
179 181 179 179 179 178 179 179 178 178 177 172 169 168 166 163 161 158 156 156 158 160 159 159 160 162 161 160 158 158 157 155 154 149 148 148 147 146 143 143 135 131 130 123 117 115 114 113 116 122 125 127 132 127 123 126 123 117 117 125 127 126 116 93 103 107 85 82 93 140 144 146 150 154 148 141 139 130 128 137 137 126 116 115 111
184 184 181 180 177 178 179 178 179 179 178 176 173 170 168 164 162 159 157 158 160 162 162 162 165 167 165 161 160 162 160 157 155 151 151 151 151 150 147 144 139 137 132 125 119 114 114 116 116 122 128 125 127 125 122 126 124 120 116 119 124 133 143 126 151 224 262 147 118 145 150 152 158 164 154 147 145 131 128 142 151 136 120 123 117
185 184 181 181 178 179 183 181 181 180 179 179 176 171 168 165 163 160 159 161 163 165 165 166 168 170 167 160 163 165 161 158 156 154 154 154 154 153 150 145 142 140 133 127 121 117 118 119 120 127 131 126 124 125 125 124 118 115 113 112 116 264 272 213 210 238 252 229 193 153 154 156 161 173 162 148 139 126 128 139 150 140 126 130 121
183 184 183 183 179 182 186 182 180 179 179 180 178 174 170 167 166 165 164 164 164 166 168 168 169 174 168 160 165 168 163 161 158 156 158 156 155 155 152 149 147 143 137 131 124 122 124 122 125 133 135 131 127 127 129 123 117 117 110 89 317 299 287 263 234 236 242 233 224 185 170 158 166 183 162 141 132 124 132 133 138 139 134 133 118
180 184 184 183 178 183 187 182 178 178 180 179 179 176 172 170 170 169 168 167 166 168 170 170 170 173 168 161 167 171 167 163 161 160 160 158 156 156 154 154 151 147 144 136 131 129 130 127 129 136 139 139 138 138 136 126 124 122 108 359 311 285 264 242 230 229 230 226 226 220 201 169 168 178 159 152 149 141 145 134 134 138 137 131 114
179 183 182 182 177 183 186 183 178 175 180 181 180 176 174 173 172 172 171 171 170 173 174 173 170 170 171 167 170 173 170 166 164 165 163 162 160 158 157 157 155 152 149 142 141 137 133 132 134 139 142 144 145 148 142 133 131 119 79 24 24 3 295 221 208 210 208 212 222 229 218 183 167 166 165 173 163 154 157 141 136 139 137 132 120
181 182 180 181 179 181 183 183 178 174 178 179 181 178 177 177 176 176 174 175 176 178 178 178 174 174 179 174 173 175 173 170 169 169 167 166 163 161 160 161 160 158 153 148 148 143 136 136 139 141 143 145 147 148 140 136 132 109 72 45 37 32 23 358 200 200 193 198 212 220 217 191 167 165 174 176 165 162 160 144 137 142 136 134 132
183 182 179 181 182 181 180 180 177 176 178 180 182 179 180 181 181 181 178 181 181 184 183 183 182 179 183 179 179 180 176 175 174 173 171 168 166 165 164 166 166 163 162 160 155 148 142 139 143 145 146 148 147 144 139 140 128 110 91 56 37 33 29 15 248 212 197 200 206 211 211 192 170 171 188 187 174 167 163 150 142 150 142 141 143
184 182 182 184 185 184 180 178 177 179 180 181 183 180 183 183 183 184 183 186 185 189 189 189 189 182 185 182 181 183 180 179 180 177 174 171 170 169 168 171 172 168 167 171 164 153 149 144 146 149 151 152 150 146 141 144 133 124 109 65 36 22 10 353 286 237 218 221 218 213 206 191 178 182 199 197 187 171 165 157 149 160 152 152 148
188 189 189 189 187 185 182 179 179 179 180 181 183 183 186 187 186 188 188 191 191 195 196 195 193 186 188 186 184 185 183 184 184 181 178 176 174 171 171 174 179 175 169 175 175 167 159 152 152 152 156 157 155 150 143 149 146 144 126 66 26 5 347 328 283 247 234 235 233 225 207 190 182 188 202 201 197 183 173 173 170 170 158 151 139
192 195 193 193 189 189 186 183 181 180 183 181 183 185 188 191 189 191 192 196 197 198 201 200 197 192 191 189 187 186 185 187 188 186 183 182 179 176 174 176 186 184 177 183 186 184 177 167 163 158 158 160 158 153 145 150 152 152 144 50 13 6 353 337 299 252 242 242 238 236 216 192 181 189 203 204 201 191 187 190 183 172 160 153 141
194 196 193 194 192 194 192 188 187 184 186 184 184 185 187 190 190 194 195 198 200 202 206 204 200 195 192 191 191 187 185 188 188 192 191 188 186 183 180 183 190 188 191 197 194 197 198 187 177 166 162 163 161 158 150 152 154 149 148 13 8 17 11 9 4 273 247 246 243 244 229 199 186 194 202 202 197 191 192 190 186 182 169 159 147
194 194 193 194 193 198 195 193 193 191 191 187 185 184 183 188 192 196 197 202 202 205 210 207 204 196 192 196 195 191 188 188 189 196 196 191 192 189 184 188 193 193 200 205 201 205 210 204 192 175 169 169 164 161 154 155 158 159 173 347 30 33 22 28 31 5 244 243 245 245 238 214 198 200 200 195 190 188 192 190 187 187 178 171 153
194 195 195 195 195 199 197 196 197 196 195 192 190 186 184 188 194 197 197 203 204 208 210 206 205 196 191 199 201 198 193 189 190 196 198 194 195 192 189 191 196 203 204 207 208 211 213 210 200 186 177 174 169 163 160 156 163 180 218 5 47 41 20 30 32 4 257 238 243 245 240 227 207 205 202 195 190 188 192 191 188 192 189 182 166
197 198 199 197 199 201 199 199 199 199 198 197 195 191 189 190 195 197 198 201 203 208 209 206 205 196 190 201 207 205 200 195 195 198 196 197 198 195 193 193 198 213 213 210 216 217 214 211 203 195 185 180 178 175 172 167 172 191 185 41 36 20 1 10 19 343 278 251 249 250 244 236 222 210 204 200 196 195 197 195 192 196 192 183 176
201 203 202 198 199 200 202 202 202 202 200 200 199 195 194 194 195 197 199 201 203 208 209 207 204 198 193 204 211 208 207 203 202 202 195 195 203 200 194 197 205 216 217 213 220 221 213 210 206 201 194 190 192 191 188 181 180 194 200 18 356 354 347 346 350 338 286 268 262 257 255 249 240 217 205 204 203 203 206 206 200 195 194 194 193
205 205 205 201 199 200 203 203 204 204 203 202 200 197 196 198 197 197 200 202 206 208 209 207 204 202 197 206 213 210 209 206 206 209 202 201 209 206 202 213 218 216 216 218 224 221 212 209 208 206 204 203 206 205 201 193 191 216 269 307 321 328 332 331 331 330 301 276 268 263 265 262 256 232 207 207 208 208 211 213 208 198 197 200 203
206 207 208 205 202 202 204 203 204 205 206 205 202 198 199 201 198 198 201 204 208 209 207 206 205 205 200 208 215 211 210 206 209 213 208 211 218 217 217 226 232 230 228 229 229 220 211 209 210 211 213 215 218 219 214 212 216 240 276 295 306 313 320 322 323 323 312 290 272 265 270 273 270 250 218 210 211 214 216 218 213 203 201 203 210
205 209 211 208 205 205 205 204 205 205 207 209 205 202 203 204 200 200 203 205 208 208 208 205 204 204 203 211 215 213 211 206 214 220 207 209 225 226 227 237 242 244 244 244 232 215 208 210 213 217 220 226 230 231 230 235 246 257 272 286 298 306 311 314 315 314 311 301 276 265 272 281 280 262 235 216 213 218 220 219 213 207 205 206 216
206 209 211 209 207 207 206 205 206 206 207 209 208 207 207 206 202 202 205 208 209 208 209 206 204 203 204 212 215 214 211 206 217 226 213 212 226 229 231 245 249 247 247 247 230 209 205 209 216 221 227 236 243 246 250 255 264 272 277 284 292 298 302 304 306 305 305 302 277 259 269 282 286 273 250 224 215 217 220 218 212 211 213 216 217
208 209 210 211 209 208 208 207 207 208 209 210 209 209 210 208 205 204 206 208 209 209 208 208 208 207 208 214 215 215 213 209 217 225 222 221 226 230 232 242 249 250 242 236 222 208 206 212 219 226 237 249 258 264 271 274 276 280 281 282 283 287 292 293 294 294 298 299 276 253 260 275 288 282 263 236 222 219 218 216 213 215 223 228 224
210 210 210 212 210 208 209 209 208 210 212 211 210 211 212 210 207 207 207 207 211 212 209 211 212 211 213 214 215 217 217 215 218 224 227 228 230 231 231 236 244 248 240 230 217 210 211 216 224 233 245 255 265 276 286 287 283 280 276 272 272 275 281 284 285 284 287 290 273 252 254 267 288 296 278 250 235 229 224 218 217 219 219 225 229
210 210 212 214 210 207 209 211 210 211 212 212 212 212 213 213 210 210 210 209 213 215 212 214 215 216 216 215 216 220 223 221 221 226 229 232 233 232 231 233 241 244 240 229 219 217 215 218 226 235 247 259 273 287 291 289 285 276 266 260 260 267 278 283 282 279 278 277 265 255 253 264 285 304 302 271 249 242 236 230 226 225 218 217 224
210 212 215 215 211 207 208 211 212 211 211 212 213 214 214 215 213 213 213 213 216 217 214 217 220 221 219 216 219 222 225 223 221 227 232 234 235 234 235 236 240 243 240 234 228 227 226 228 234 243 259 273 282 286 286 292 296 278 256 247 249 263 283 288 283 280 274 264 256 252 252 261 276 291 313 314 276 259 248 242 238 237 233 227 227
212 215 217 216 213 209 208 210 211 212 211 212 214 214 215 216 216 216 216 216 218 219 216 218 222 224 221 218 220 223 223 222 221 227 232 237 239 239 241 241 242 244 243 243 241 240 242 246 251 263 274 282 285 278 283 307 341 337 258 222 240 267 296 304 298 291 270 255 250 249 249 257 266 271 282 308 301 282 261 253 249 246 243 240 237
214 214 216 218 216 210 207 208 209 211 212 212 213 214 215 217 218 217 218 218 219 222 220 219 222 224 223 220 220 221 221 221 223 227 232 239 242 242 243 241 241 244 248 250 253 254 257 261 265 273 276 280 286 269 273 322 3 1 17 124 243 274 299 309 307 301 276 259 255 251 249 254 259 260 264 271 278 288 281 265 261 255 248 245 242
212 212 217 219 216 210 206 207 208 210 211 211 212 214 216 217 219 218 218 219 220 222 222 220 222 223 224 223 221 220 219 222 224 227 233 239 241 241 239 237 238 246 253 255 257 258 260 264 267 272 272 273 276 248 237 265 273 261 236 237 251 272 288 293 292 292 282 269 260 254 249 252 257 258 260 264 268 280 291 280 276 272 263 254 246
209 212 217 217 216 212 207 207 206 208 209 211 212 213 216 218 220 220 219 220 221 223 223 222 222 223 224 224 222 219 219 223 226 228 235 239 239 237 232 229 236 252 261 256 252 252 257 261 261 265 267 265 259 231 218 227 231 222 224 244 258 274 285 291 289 286 278 268 262 256 251 251 255 260 260 264 269 272 284 285 282 285 281 274 264
210 212 215 216 216 212 208 208 207 207 208 209 211 213 216 218 219 220 219 220 221 223 224 224 225 224 224 223 222 220 220 223 226 231 236 239 238 234 229 226 235 259 270 252 242 248 262 264 255 252 254 256 250 227 216 217 221 224 232 247 260 284 296 299 296 287 278 270 266 261 255 253 254 261 264 267 272 273 289 294 286 287 289 286 282
211 212 214 217 218 214 209 208 208 208 207 207 210 212 214 216 217 217 218 219 221 223 225 225 226 224 223 223 222 221 223 225 228 232 235 240 240 230 224 229 240 259 267 245 239 251 270 268 249 237 239 242 239 228 217 214 213 222 233 239 269 310 315 308 302 293 283 274 269 265 260 258 257 264 268 271 274 273 288 301 296 294 292 290 292
210 211 213 215 216 213 208 207 207 207 207 206 207 210 211 212 213 214 215 217 219 222 225 226 226 224 223 224 224 222 225 228 231 233 236 240 242 231 222 229 240 251 260 252 250 259 269 262 240 226 226 224 225 222 213 208 209 218 227 249 291 309 314 310 306 296 286 278 273 269 265 264 264 271 276 276 279 279 282 295 300 298 294 291 294
208 209 209 210 212 210 205 204 205 205 204 204 204 205 206 207 208 209 211 214 216 219 222 225 227 228 228 228 228 227 229 232 233 234 236 239 241 238 232 233 239 245 252 254 255 260 261 251 234 220 216 211 211 209 202 206 212 218 230 260 285 301 306 302 300 295 287 279 274 271 268 268 271 279 285 285 287 287 284 288 293 292 292 292 292
201 204 204 205 208 207 203 202 203 203 202 201 201 202 202 202 203 205 207 208 210 214 219 222 226 231 233 234 234 236 237 235 234 233 233 237 239 241 240 240 242 242 244 246 246 250 251 243 231 219 215 219 222 216 212 208 208 227 251 273 285 291 293 294 293 292 289 279 271 268 265 266 270 276 284 287 291 294 292 292 296 298 300 298 297
193 198 201 201 204 204 203 202 201 200 201 201 201 203 205 204 202 203 205 207 208 209 214 220 224 230 235 238 238 240 242 237 233 231 230 233 235 239 243 244 242 240 240 238 233 237 241 233 222 213 214 225 231 225 222 213 207 229 260 290 302 300 294 293 291 288 286 277 268 267 266 268 273 275 279 286 292 298 298 299 305 312 314 307 307
192 194 197 197 198 200 201 202 201 199 200 202 202 203 207 208 206 205 205 206 211 213 216 222 227 231 236 242 243 240 240 237 231 229 228 230 232 237 243 245 240 236 235 232 225 224 228 224 217 215 217 225 231 230 226 221 219 211 99 332 325 329 316 310 311 299 286 276 271 270 273 279 282 280 280 286 292 294 297 303 309 315 315 309 308
187 188 190 191 192 196 199 201 201 200 200 203 205 206 208 210 210 212 210 207 212 218 220 224 228 233 237 241 245 241 235 233 230 228 229 230 233 238 243 244 239 234 233 231 224 219 222 223 220 221 223 223 225 227 225 226 225 213 144 58 25 356 315 332 338 319 301 288 278 278 281 285 289 289 288 286 287 292 300 308 314 316 312 298 287
184 186 186 187 189 192 196 200 201 202 203 204 207 208 208 209 208 209 211 209 213 217 218 222 225 230 234 234 238 239 233 229 227 228 229 231 234 237 240 240 238 234 233 234 229 224 225 228 227 225 225 226 227 227 224 223 223 222 209 179 201 286 239 324 341 320 320 321 300 299 308 312 316 308 299 288 282 292 308 318 326 330 318 269 232
180 183 184 186 189 191 194 197 199 201 205 207 207 208 207 205 204 202 200 202 207 212 215 219 221 223 227 229 233 237 234 229 227 228 229 230 234 236 235 234 234 235 236 238 236 232 229 230 232 231 229 231 231 228 223 219 220 223 222 220 237 260 237 333 9 322 323 326 332 349 348 356 7 1 350 322 296 300 324 346 7 17 33 155 152
171 178 180 184 187 189 191 194 197 201 206 208 208 208 208 206 206 205 204 204 205 211 216 220 223 223 224 226 230 237 238 234 229 228 229 230 233 233 230 230 234 237 239 242 242 239 235 233 235 236 236 236 234 230 224 219 217 221 227 229 235 251 265 263 211 264 313 313 333 350 348 354 5 19 40 51 69 62 26 30 52 68 87 118 131
165 173 175 178 184 188 191 194 197 200 204 207 208 209 209 209 210 211 214 218 216 216 218 222 226 229 228 228 230 236 242 241 234 229 228 230 233 233 231 234 238 239 240 243 244 242 238 235 235 236 238 237 236 236 230 223 219 218 224 229 235 242 248 239 225 235 246 271 305 324 339 356 18 44 45 66 84 72 67 87 96 90 96 117 128
163 168 171 176 184 189 192 194 196 198 201 205 208 210 213 214 214 216 220 226 228 225 221 221 226 231 232 231 233 239 246 249 243 234 230 232 235 237 237 241 243 243 243 244 244 242 238 236 236 236 236 236 237 238 236 232 227 226 229 234 240 244 242 234 232 237 220 209 278 300 339 357 33 55 35 54 102 86 96 120 117 110 115 127 134
161 166 172 180 187 190 191 192 195 196 198 203 207 212 217 219 220 220 222 226 228 229 226 220 222 227 230 231 234 242 247 251 250 240 233 233 236 240 243 247 249 247 246 245 244 241 238 236 237 238 238 238 239 237 239 241 237 240 243 239 238 236 222 213 218 227 231 228 249 273 294 313 315 4 24 62 129 118 118 132 127 120 125 129 132
161 167 174 183 187 190 190 191 194 195 197 203 207 211 216 220 221 222 223 223 222 224 225 223 221 221 226 229 233 239 244 251 254 246 237 234 235 240 246 250 251 249 246 245 244 241 239 237 235 236 236 237 240 240 240 244 243 244 245 242 240 232 219 215 216 218 222 225 231 260 271 275 271 280 36 81 138 141 134 143 136 123 123 125 122